Date,TemperatureHighF,TemperatureAvgF,TemperatureLowF,DewpointHighF,DewpointAvgF,DewpointLowF,HumidityHigh,HumidityAvg,HumidityLow,PressureMaxIn,PressureMinIn,WindSpeedMaxMPH,WindSpeedAvgMPH,GustSpeedMaxMPH,PrecipitationSumIn
2013-1-14,28.0,23.8,21.0,17.0,13.2,-99.9,82,69,61,0.00,40.00,10,5,17,0.00
2013-1-15,31.0,26.8,21.0,21.0,19.2,17.0,86,73,61,0.00,40.00,10,5,16,0.00
2013-1-16,37.0,31.1,28.0,23.0,20.4,16.0,79,65,43,0.00,40.00,10,3,12,0.00
2013-1-17,43.0,34.1,28.0,31.0,23.5,20.0,73,65,57,0.00,40.00,16,4,24,0.00
2013-1-18,44.0,33.3,19.0,27.0,21.9,17.0,90,65,41,0.00,40.00,16,6,23,0.00
2013-1-19,54.0,44.6,36.0,37.0,30.5,25.0,71,58,41,0.00,40.00,27,15,36,0.00
2013-1-20,46.0,36.9,27.0,35.0,19.6,10.0,84,51,27,0.00,40.00,11,4,14,0.00
2013-1-21,31.0,25.4,20.0,16.0,9.9,1.0,66,52,41,0.00,40.00,16,6,24,0.00
2013-1-22,23.0,19.4,15.0,3.0,0.3,-3.0,50,42,37,0.00,40.00,6,2,9,0.00
2013-1-23,44.0,28.3,13.0,25.0,14.6,2.0,83,58,36,0.00,40.00,10,3,14,0.00
2013-1-24,34.0,26.9,19.0,23.0,11.0,5.0,67,52,36,0.00,40.00,17,7,25,0.00
2013-1-25,42.0,31.9,28.0,26.0,16.7,5.0,83,54,36,0.00,40.00,10,3,16,0.00
2013-1-26,42.0,34.8,27.0,25.0,19.4,13.0,83,54,34,0.00,40.00,8,3,12,0.00
2013-1-27,34.0,29.1,24.0,29.0,22.3,16.0,81,76,62,0.00,40.00,4,2,6,0.00
2013-1-28,61.0,57.9,53.0,57.0,55.0,51.0,91,90,81,0.00,40.00,19,12,27,0.00
2013-1-29,70.0,63.1,53.0,58.0,55.2,50.0,92,77,54,0.00,40.00,29,16,42,0.00
2013-1-30,53.0,44.2,31.0,50.0,37.5,15.0,92,78,52,0.00,40.00,21,9,29,0.00
2013-1-31,40.0,30.8,18.0,30.0,16.4,1.0,89,55,42,0.00,40.00,24,11,29,0.00
2013-2-1,28.0,19.5,9.0,11.0,1.8,-3.0,61,46,33,0.00,40.00,19,5,21,0.00
2013-2-2,45.0,34.0,24.0,23.0,17.9,10.0,76,52,36,0.00,40.00,14,7,21,0.00
2013-2-3,37.0,32.3,25.0,30.0,21.8,14.0,91,67,42,0.00,40.00,24,5,27,0.00
2013-2-4,45.0,37.3,28.0,38.0,28.9,18.0,90,72,44,0.00,40.00,16,9,24,0.00
2013-2-5,55.0,39.8,26.0,37.0,29.4,24.0,92,70,37,0.00,40.00,12,4,17,0.00
2013-2-6,54.0,41.4,29.0,32.0,26.9,22.0,92,60,30,0.00,40.00,6,2,9,0.00
2013-2-7,64.0,50.4,33.0,52.0,38.0,26.0,91,64,40,0.00,40.00,12,5,18,0.00
2013-2-8,46.0,37.8,32.0,43.0,29.7,24.0,89,73,59,0.00,40.00,16,7,24,0.00
2013-2-9,47.0,38.2,31.0,32.0,24.4,22.0,73,59,38,0.00,40.00,12,4,14,0.00
2013-2-10,55.0,49.8,40.0,52.0,42.1,30.0,90,76,50,0.00,40.00,21,9,31,0.00
2013-2-11,54.0,44.6,30.0,50.0,24.1,18.0,89,47,27,0.00,40.00,18,7,25,0.00
2013-2-12,49.0,38.5,25.0,33.0,26.0,23.0,92,64,37,0.00,40.00,8,2,9,0.00
2013-2-13,50.0,40.3,33.0,37.0,32.4,27.0,93,75,42,0.00,40.00,12,5,17,0.00
2013-2-14,60.0,46.2,36.0,37.0,31.1,24.0,93,62,28,0.00,40.00,14,6,21,0.00
2013-2-15,45.0,37.0,24.0,32.0,21.6,11.0,82,55,34,0.00,40.00,21,5,26,0.00
2013-2-16,36.0,27.6,19.0,20.0,13.3,5.0,89,58,29,0.00,40.00,12,4,18,0.00
2013-2-17,47.0,32.5,16.0,20.0,16.0,10.0,90,55,31,0.00,40.00,14,5,21,0.00
2013-2-18,56.0,46.7,40.0,47.0,36.4,19.0,93,69,40,0.00,40.00,26,14,37,0.00
2013-2-19,42.0,35.1,27.0,35.0,15.2,6.0,79,46,25,0.00,40.00,21,8,25,0.00
2013-2-20,29.0,25.8,22.0,16.0,11.4,8.0,71,54,47,0.00,40.00,9,4,12,0.00
2013-2-21,33.0,27.5,23.0,31.0,20.8,15.0,92,76,59,0.00,40.00,12,4,21,0.00
2013-2-22,33.0,33.0,33.0,31.0,31.0,31.0,92,92,92,0.00,40.00,0,0,0,0.00
2013-2-23,43.0,32.1,22.0,26.0,20.8,18.0,90,66,40,0.00,40.00,9,2,12,0.00
2013-2-24,51.0,35.7,20.0,28.0,21.6,18.0,91,62,29,0.00,40.00,8,2,10,0.00
2013-2-25,53.0,42.2,29.0,28.0,25.4,23.0,87,55,33,0.00,40.00,18,7,25,0.00
2013-2-26,49.0,42.4,37.0,44.0,37.6,25.0,92,83,45,0.00,40.00,17,8,24,0.00
2013-2-27,39.0,36.4,32.0,33.0,28.4,24.0,88,73,54,0.00,40.00,17,6,21,0.00
2013-2-28,38.0,34.2,32.0,30.0,27.7,25.0,91,77,68,0.00,40.00,16,6,21,0.00
2013-3-1,35.0,32.7,30.0,32.0,30.0,27.0,93,90,85,0.00,40.00,12,6,16,0.00
2013-3-2,32.0,30.1,28.0,28.0,21.3,13.0,89,70,47,0.00,40.00,14,7,18,0.00
2013-3-3,43.0,32.1,19.0,21.0,15.8,11.0,85,54,28,0.00,40.00,9,2,10,0.00
2013-3-4,53.0,45.0,36.0,32.0,23.6,19.0,55,43,33,0.00,40.00,14,5,21,0.00
2013-3-5,49.0,38.0,32.0,39.0,30.5,16.0,94,75,48,0.00,40.00,24,9,32,0.00
2013-3-6,40.0,34.8,31.0,24.0,21.5,19.0,71,58,49,0.00,40.00,23,9,29,0.00
2013-3-7,48.0,35.3,24.0,28.0,23.5,22.0,91,65,37,0.00,40.00,8,2,10,0.00
2013-3-8,56.0,39.9,24.0,30.0,24.4,22.0,92,59,29,0.00,40.00,9,2,12,0.00
2013-3-9,66.0,52.5,43.0,30.0,26.8,23.0,48,38,25,0.00,40.00,17,7,29,0.00
2013-3-10,65.0,56.6,49.0,51.0,43.4,32.0,92,65,37,0.00,40.00,26,11,37,0.00
2013-3-11,50.0,40.6,36.0,48.0,34.0,25.0,92,77,62,0.00,40.00,12,6,19,0.00
2013-3-12,52.0,39.9,30.0,27.0,20.9,15.0,81,51,25,0.00,40.00,17,6,25,0.00
2013-3-13,41.0,35.0,25.0,23.0,17.5,14.0,78,50,36,0.00,40.00,21,9,27,0.00
2013-3-14,42.0,32.5,21.0,28.0,22.5,18.0,90,69,40,0.00,40.00,12,4,18,0.00
2013-3-15,71.0,53.8,36.0,47.0,35.6,25.0,69,52,33,0.00,40.00,19,7,25,0.00
2013-3-16,65.0,53.6,40.0,48.0,42.4,35.0,81,66,51,0.00,40.00,16,9,21,0.00
2013-3-17,41.0,37.7,34.0,38.0,35.5,32.0,92,91,80,0.00,40.00,17,8,21,0.00
2013-3-18,49.0,42.2,33.0,41.0,35.7,31.0,92,79,58,0.00,40.00,14,6,21,0.00
2013-3-19,50.0,40.6,28.0,32.0,16.6,10.0,90,41,21,0.00,40.00,18,5,24,0.00
2013-3-30,54.0,50.9,48.0,47.0,41.8,-99.9,91,79,58,0.00,40.00,10,2,14,0.00
2013-3-31,67.0,54.7,48.0,48.0,43.9,36.0,91,71,33,0.00,40.00,10,2,14,0.00
2013-4-1,53.0,46.2,37.0,45.0,27.1,19.0,79,49,32,0.00,40.00,16,6,21,0.00
2013-4-2,49.0,39.2,29.0,27.0,19.2,12.0,87,49,24,0.00,40.00,8,2,12,0.00
2013-4-3,52.0,40.5,26.0,31.0,20.9,15.0,91,52,25,0.00,40.00,18,4,24,0.00
2013-4-4,62.0,46.3,33.0,29.0,23.7,20.0,75,45,21,0.00,40.00,9,2,12,0.00
2013-4-5,68.0,50.2,30.0,36.0,29.1,25.0,91,52,23,0.00,40.00,12,3,21,0.00
2013-4-6,72.0,59.0,44.0,39.0,36.0,33.0,77,46,27,0.00,40.00,25,9,32,0.00
2013-4-7,73.0,65.7,59.0,54.0,48.8,38.0,78,55,38,0.00,40.00,21,9,27,0.00
2013-4-8,75.0,66.1,59.0,56.0,53.3,50.0,83,64,46,0.00,40.00,24,9,33,0.00
2013-4-9,80.0,69.8,58.0,62.0,57.8,54.0,86,67,48,0.00,40.00,21,8,29,0.00
2013-4-10,82.0,74.7,65.0,69.0,63.0,59.0,90,68,53,0.00,40.00,21,10,32,0.00
2013-4-11,66.0,54.5,42.0,63.0,50.3,30.0,91,86,60,0.00,40.00,14,6,21,0.00
2013-4-12,57.0,44.7,34.0,36.0,29.4,27.0,90,59,32,0.00,40.00,16,6,24,0.00
2013-4-13,66.0,49.3,32.0,41.0,31.6,28.0,90,56,28,0.00,40.00,10,2,14,0.00
2013-4-14,76.0,62.3,45.0,47.0,40.4,37.0,83,47,29,0.00,40.00,23,8,33,0.00
2013-4-15,78.0,67.0,59.0,58.0,53.4,45.0,77,63,47,0.00,40.00,12,6,24,0.00
2013-4-16,74.0,64.7,55.0,66.0,56.8,52.0,89,76,58,0.00,40.00,14,5,19,0.00
2013-4-17,84.0,69.3,55.0,66.0,59.5,53.0,92,73,49,0.00,40.00,18,5,27,0.00
2013-4-18,77.0,68.1,42.0,63.0,58.2,38.0,92,72,50,0.00,40.00,27,13,36,0.00
2013-4-19,52.0,43.7,35.0,40.0,26.1,20.0,88,52,30,0.00,40.00,18,8,26,0.00
2013-4-20,60.0,45.8,31.0,37.0,27.4,22.0,92,55,26,0.00,40.00,10,2,16,0.00
2013-4-21,65.0,52.0,39.0,36.0,30.2,27.0,76,47,26,0.00,40.00,12,4,14,0.00
2013-4-22,73.0,56.1,36.0,48.0,37.4,33.0,91,57,27,0.00,40.00,10,2,14,0.00
2013-4-23,71.0,60.9,45.0,58.0,49.9,42.0,91,68,54,0.00,40.00,18,7,29,0.00
2013-4-24,53.0,43.7,35.0,42.0,34.5,26.0,92,73,35,0.00,40.00,16,6,18,0.00
2013-4-25,65.0,49.5,34.0,42.0,33.7,29.0,93,61,28,0.00,40.00,10,3,14,0.00
2013-4-26,53.0,50.5,43.0,48.0,41.3,33.0,91,72,49,0.00,40.00,9,3,12,0.00
2013-4-27,57.0,53.2,49.0,55.0,50.5,47.0,92,91,87,0.00,40.00,9,2,12,0.00
2013-4-28,59.0,55.6,53.0,55.0,51.0,49.0,91,85,72,0.00,40.00,10,3,12,0.00
2013-4-29,74.0,59.8,48.0,55.0,50.2,45.0,92,74,45,0.00,40.00,10,3,18,0.00
2013-4-30,83.0,71.3,57.0,56.0,52.0,49.0,87,55,33,0.00,40.00,10,3,18,0.00
2013-5-1,82.0,69.7,54.0,62.0,54.8,50.0,91,62,37,0.00,40.00,10,1,14,0.00
2013-5-2,79.0,66.6,57.0,59.0,54.5,50.0,91,68,38,0.00,40.00,12,2,14,0.00
2013-5-3,58.0,52.3,43.0,55.0,49.6,40.0,91,91,90,0.00,40.00,8,2,10,0.00
2013-5-4,53.0,45.3,41.0,41.0,36.7,31.0,91,74,44,0.00,40.00,9,2,12,0.00
2013-5-5,60.0,50.6,42.0,53.0,47.3,39.0,92,88,72,0.00,40.00,10,2,14,0.00
2013-5-6,63.0,57.0,52.0,56.0,52.2,49.0,92,84,68,0.00,40.00,12,4,16,0.00
2013-5-7,74.0,61.7,50.0,58.0,51.8,48.0,92,73,43,0.00,40.00,6,1,10,0.00
2013-5-8,83.0,67.0,51.0,59.0,49.7,41.0,91,61,25,0.00,40.00,4,1,9,0.00
2013-5-9,80.0,70.2,60.0,62.0,57.2,53.0,90,66,39,0.00,40.00,16,4,29,0.00
2013-5-10,78.0,66.2,59.0,64.0,57.1,-99.9,91,77,48,0.00,40.00,10,2,16,0.00
2013-5-11,72.0,59.9,52.0,60.0,45.1,-99.9,86,62,32,0.00,40.00,12,4,19,0.00
2013-5-12,63.0,51.1,37.0,39.0,30.9,23.0,93,53,23,0.00,40.00,14,3,21,0.00
2013-5-13,72.0,55.0,36.0,45.0,33.8,25.0,93,54,20,0.00,40.00,9,2,14,0.00
2013-5-14,87.0,71.5,56.0,57.0,50.6,38.0,67,49,35,0.00,40.00,11,5,18,0.00
2013-5-15,86.0,76.0,65.0,60.0,57.1,55.0,74,53,38,0.00,40.00,14,5,21,0.00
2013-5-16,82.0,66.8,65.0,63.0,37.4,-99.9,88,62,42,0.00,40.00,10,2,14,0.00
2013-5-17,75.0,66.7,62.0,63.0,54.5,-99.9,91,80,61,0.00,40.00,10,3,14,0.00
2013-5-18,82.0,70.8,59.0,66.0,60.3,57.0,92,72,46,0.00,40.00,0,0,3,0.00
2013-5-19,89.0,78.4,70.0,71.0,66.1,62.0,89,68,48,0.00,40.00,10,2,18,0.00
2013-5-20,86.0,79.3,72.0,69.0,65.6,62.0,89,65,46,0.00,40.00,14,4,25,0.00
2013-5-21,78.0,70.5,64.0,68.0,63.0,59.0,91,79,55,0.00,40.00,14,5,21,0.00
2013-5-22,78.0,69.7,62.0,63.0,58.3,52.0,91,70,41,0.00,40.00,12,5,19,0.00
2013-5-23,70.0,62.2,54.0,61.0,52.3,49.0,91,71,50,0.00,40.00,14,5,24,0.00
2013-5-24,72.0,56.8,43.0,49.0,39.2,33.0,90,56,28,0.00,40.00,12,3,21,0.00
2013-5-25,76.0,61.0,43.0,53.0,44.0,41.0,92,60,29,0.00,40.00,6,1,10,0.00
2013-5-26,83.0,70.0,56.0,59.0,54.0,50.0,89,60,37,0.00,40.00,6,1,10,0.00
2013-5-27,85.0,73.7,61.0,65.0,59.0,53.0,87,62,35,0.00,40.00,14,3,21,0.00
2013-5-28,86.0,76.9,65.0,67.0,61.5,56.0,83,61,44,0.00,40.00,14,5,25,0.00
2013-5-29,87.0,77.1,64.0,65.0,60.3,57.0,87,57,41,0.00,40.00,12,3,24,0.00
2013-5-30,86.0,78.4,74.0,68.0,66.0,63.0,77,66,52,0.00,40.00,18,8,27,0.00
2013-5-31,79.0,72.7,66.0,71.0,67.0,63.0,91,83,63,0.00,40.00,14,6,21,0.00
2013-6-1,77.0,67.3,63.0,71.0,61.5,-99.9,91,86,68,0.00,40.00,18,5,25,0.00
2013-6-2,66.0,65.4,65.0,63.0,62.4,62.0,91,90,90,0.00,40.00,0,0,1,0.00
2013-6-3,74.0,67.4,55.0,54.0,49.7,47.0,90,55,41,0.00,40.00,4,1,10,0.00
2013-6-4,80.0,64.9,49.0,60.0,52.3,47.0,92,68,36,0.00,40.00,8,0,9,0.00
2013-6-5,85.0,71.9,59.0,66.0,58.4,52.0,91,67,34,0.00,40.00,0,0,2,0.00
2013-6-6,82.0,73.2,66.0,65.0,59.7,54.0,90,65,41,0.00,40.00,9,1,12,0.00
2013-6-7,78.0,69.2,61.0,62.0,57.5,54.0,89,68,46,0.00,40.00,10,2,14,0.00
2013-6-8,83.0,69.2,56.0,62.0,54.3,48.0,91,64,32,0.00,40.00,4,0,9,0.00
2013-6-9,79.0,69.9,61.0,68.0,60.9,54.0,91,75,54,0.00,40.00,12,1,16,0.00
2013-6-10,81.0,70.5,63.0,66.0,60.9,56.0,91,75,43,0.00,40.00,10,2,16,0.00
2013-6-11,94.0,77.0,59.0,73.0,64.3,56.0,91,68,43,0.00,40.00,6,0,14,0.00
2013-6-12,94.0,84.0,72.0,73.0,69.2,65.0,90,64,41,0.00,40.00,11,1,19,0.00
2013-6-13,84.0,77.2,64.0,69.0,63.9,57.0,89,65,43,0.00,40.00,16,3,21,0.00
2013-6-14,84.0,70.7,56.0,62.0,55.9,51.0,92,65,33,0.00,40.00,6,0,12,0.00
2013-6-15,89.0,74.9,60.0,67.0,59.8,56.0,91,64,35,0.00,40.00,6,0,10,0.00
2013-6-16,88.0,77.0,69.0,71.0,66.6,62.0,91,72,46,0.00,40.00,3,0,6,0.00
2013-6-17,88.0,72.7,66.0,73.0,66.6,63.0,91,83,51,0.00,40.00,9,1,12,0.00
2013-6-18,88.0,74.7,63.0,69.0,62.5,60.0,91,69,40,0.00,40.00,14,1,24,0.00
2013-6-19,88.0,76.2,65.0,68.0,63.4,59.0,91,68,38,0.00,40.00,3,0,6,0.00
2013-6-20,90.0,73.3,64.0,69.0,63.8,62.0,91,76,42,0.00,40.00,0,0,0,0.00
2013-6-22,90.0,81.0,69.0,68.0,65.6,59.0,90,62,43,0.00,40.00,10,2,14,0.00
2013-6-23,88.0,76.2,66.0,71.0,65.9,60.0,91,72,50,0.00,40.00,14,1,25,0.00
2013-6-24,92.0,77.6,68.0,71.0,67.8,66.0,91,74,44,0.00,40.00,8,1,12,0.00
2013-6-25,93.0,82.2,72.0,73.0,70.1,67.0,91,69,46,0.00,40.00,8,1,12,0.00
2013-6-26,91.0,79.2,72.0,75.0,71.2,69.0,91,78,56,0.00,40.00,21,3,25,0.00
2013-6-27,95.0,81.5,73.0,73.0,68.9,62.0,91,70,36,0.00,40.00,9,2,14,0.00
2013-6-28,90.0,79.3,68.0,71.0,63.9,54.0,85,63,36,0.00,40.00,9,1,12,0.00
2013-6-29,84.0,73.3,64.0,63.0,59.2,55.0,91,64,43,0.00,40.00,18,2,25,0.00
2013-6-30,75.0,68.2,63.0,64.0,62.6,60.0,92,83,60,0.00,40.00,9,2,12,0.00
2013-7-1,68.0,65.9,64.0,64.0,62.4,61.0,91,89,79,0.00,40.00,9,3,14,0.00
2013-7-2,66.0,64.7,63.0,64.0,61.8,60.0,91,90,85,0.00,40.00,6,2,12,0.00
2013-7-3,82.0,68.6,62.0,63.0,58.5,50.0,91,75,34,0.00,40.00,3,0,4,0.00
2013-7-4,85.0,71.2,57.0,67.0,60.2,55.0,91,71,41,0.00,40.00,6,0,12,0.00
2013-7-5,84.0,72.8,63.0,68.0,63.1,60.0,91,74,48,0.00,40.00,1,0,4,0.00
2013-7-6,87.0,74.9,68.0,68.0,65.1,59.0,90,74,46,0.00,40.00,10,1,14,0.00
2013-7-7,90.0,75.7,64.0,71.0,65.1,61.0,91,73,40,0.00,40.00,3,0,6,0.00
2013-7-8,91.0,76.2,69.0,73.0,66.1,-99.9,91,77,45,0.00,40.00,0,0,4,0.00
2013-7-9,94.0,82.7,73.0,76.0,71.6,68.0,90,72,44,0.00,40.00,0,0,6,0.00
2013-7-10,87.0,78.3,74.0,74.0,66.8,-99.9,91,73,53,0.00,40.00,3,0,9,0.00
2013-7-11,84.0,75.9,65.0,72.0,62.3,52.0,91,67,36,0.00,40.00,6,1,12,0.00
2013-7-12,85.0,70.8,58.0,62.0,56.2,52.0,92,65,32,0.00,40.00,4,1,12,0.00
2013-7-13,86.0,73.1,57.0,65.0,57.8,55.0,92,63,34,0.00,40.00,6,1,11,0.00
2013-7-14,88.0,74.6,61.0,73.0,65.5,59.0,91,76,46,0.00,40.00,4,0,10,0.00
2013-7-15,87.0,76.9,69.0,76.0,70.3,66.0,91,81,57,0.00,40.00,6,0,9,0.00
2013-7-16,93.0,84.6,69.0,74.0,68.6,66.0,91,62,41,0.00,40.00,1,0,6,0.00
2013-7-17,97.0,83.5,70.0,75.0,69.1,65.0,91,66,36,0.00,40.00,0,0,0,0.00
2013-7-18,94.0,83.5,71.0,76.0,71.0,65.0,91,69,40,0.00,40.00,4,0,9,0.00
2013-7-19,92.0,81.3,71.0,74.0,68.9,65.0,91,69,42,0.00,40.00,4,0,9,0.00
2013-7-20,94.0,79.8,70.0,73.0,68.9,66.0,91,72,44,0.00,40.00,10,1,18,0.00
2013-7-21,90.0,75.2,69.0,71.0,67.6,66.0,91,80,45,0.00,40.00,4,0,9,0.00
2013-7-22,89.0,78.0,70.0,74.0,68.9,66.0,91,76,48,0.00,40.00,6,1,10,0.00
2013-7-23,92.0,79.1,68.0,75.0,70.1,65.0,91,77,46,0.00,40.00,3,0,9,0.00
2013-7-24,81.0,72.8,62.0,65.0,57.3,52.0,91,61,39,0.00,40.00,4,0,10,0.00
2013-7-25,81.0,67.9,57.0,61.0,55.4,50.0,91,69,36,0.00,40.00,6,0,10,0.00
2013-7-26,83.0,67.9,56.0,67.0,59.0,53.0,91,76,38,0.00,40.00,1,0,4,0.00
2013-7-27,79.0,70.9,61.0,66.0,58.6,49.0,91,68,39,0.00,40.00,12,1,18,0.00
2013-7-28,80.0,69.4,51.0,58.0,50.7,46.0,91,57,31,0.00,40.00,4,0,9,0.00
2013-7-29,80.0,69.1,58.0,63.0,58.0,55.0,91,71,44,0.00,40.00,2,0,6,0.00
2013-7-30,71.0,69.4,66.0,69.0,64.2,58.0,91,84,67,0.00,40.00,14,3,18,0.00
2013-7-31,87.0,75.6,69.0,71.0,68.1,66.0,91,79,53,0.00,40.00,4,1,8,0.00
2013-8-1,87.0,74.5,65.0,67.0,62.7,55.0,91,71,36,0.00,40.00,3,0,10,0.00
2013-8-2,87.0,73.8,61.0,69.0,62.9,59.0,91,71,41,0.00,40.00,4,1,9,0.00
2013-8-3,86.0,75.7,69.0,71.0,68.7,66.0,91,80,56,0.00,40.00,6,1,10,0.00
2013-8-4,84.0,71.9,63.0,68.0,60.2,52.0,91,71,36,0.00,40.00,4,0,9,0.00
2013-8-5,72.0,65.9,60.0,65.0,61.6,57.0,91,87,64,0.00,40.00,6,1,10,0.00
2013-8-6,84.0,74.6,69.0,72.0,68.1,65.0,91,82,54,0.00,40.00,3,0,6,0.00
2013-8-7,84.0,75.0,70.0,71.0,69.2,66.0,91,83,56,0.00,40.00,6,1,9,0.00
2013-8-8,85.0,76.0,68.0,75.0,70.2,66.0,91,83,61,0.00,40.00,6,0,12,0.00
2013-8-9,82.0,74.6,71.0,75.0,70.2,68.0,91,87,64,0.00,40.00,4,0,6,0.00
2013-8-10,87.0,74.0,70.0,70.0,67.5,63.0,91,83,45,0.00,40.00,1,0,3,0.00
2013-8-11,89.0,84.7,71.0,68.0,63.5,62.0,90,52,42,0.00,40.00,0,0,2,0.00
2013-8-14,73.0,72.7,72.0,46.0,45.7,45.0,39,38,37,0.00,40.00,6,3,12,0.00
2013-8-17,79.0,67.8,64.0,66.0,58.1,-99.9,91,76,50,0.00,40.00,8,1,11,0.00
2013-8-18,83.0,70.4,62.0,67.0,62.3,58.0,91,78,44,0.00,40.00,1,0,6,0.00
2013-8-19,86.0,64.4,61.0,68.0,41.0,-99.9,91,75,42,0.00,40.00,0,0,3,0.00
2013-8-20,90.0,73.1,64.0,70.0,60.2,-99.9,91,72,40,0.00,40.00,0,0,0,0.00
2013-8-21,91.0,77.7,68.0,74.0,66.2,62.0,91,72,39,0.00,40.00,0,0,1,0.00
2013-8-22,92.0,79.2,68.0,74.0,67.7,64.0,91,71,40,0.00,40.00,2,0,6,0.00
2013-8-23,90.0,78.9,69.0,73.0,68.0,66.0,91,72,46,0.00,40.00,4,0,6,0.00
2013-8-24,90.0,82.2,72.0,67.0,62.3,59.0,84,54,36,0.00,40.00,1,0,6,0.00
2013-8-25,92.0,84.7,74.0,70.0,65.7,63.0,89,55,40,0.00,40.00,0,0,0,0.00
2013-8-26,92.0,81.8,72.0,71.0,68.8,67.0,91,68,44,0.00,40.00,2,0,6,0.00
2013-8-27,91.0,80.2,72.0,71.0,69.2,68.0,90,72,49,0.00,40.00,1,0,4,0.00
2013-8-28,93.0,85.7,73.0,71.0,65.1,61.0,89,55,35,0.00,40.00,1,0,9,0.00
2013-8-29,97.0,84.3,73.0,73.0,68.4,65.0,89,62,37,0.00,40.00,1,0,4,0.00
2013-8-30,97.0,83.2,72.0,73.0,68.6,62.0,91,67,32,0.00,40.00,0,0,3,0.00
2013-8-31,98.0,84.0,75.0,76.0,68.4,-99.9,90,65,37,0.00,40.00,1,0,8,0.00
2013-9-1,88.0,79.6,73.0,74.0,70.7,68.0,91,75,51,0.00,40.00,14,2,21,0.00
2013-9-2,88.0,77.4,67.0,71.0,64.6,56.0,91,68,36,0.00,40.00,3,0,10,0.00
2013-9-3,86.0,74.3,63.0,62.0,57.1,53.0,89,60,34,0.00,40.00,2,0,6,0.00
2013-9-4,86.0,79.8,67.0,59.0,54.0,52.0,76,44,32,0.00,40.00,0,0,2,0.00
2013-9-5,87.0,74.8,65.0,62.0,58.7,53.0,89,62,31,0.00,40.00,0,0,3,0.00
2013-9-6,90.0,77.0,65.0,65.0,60.6,56.0,90,63,33,0.00,40.00,1,0,4,0.00
2013-9-7,91.0,77.2,66.0,66.0,54.8,-99.9,90,55,35,0.00,40.00,4,0,11,0.00
2013-9-8,87.0,77.5,71.0,71.0,67.7,65.0,90,73,49,0.00,40.00,1,0,6,0.00
2013-9-9,96.0,82.1,72.0,73.0,69.3,66.0,91,69,38,0.00,40.00,3,0,9,0.00
2013-10-29,63.0,62.5,61.0,61.0,60.5,59.0,92,92,92,0.00,40.00,3,2,10,0.00
2013-10-30,76.0,67.2,62.0,62.0,60.2,58.0,92,80,53,0.00,40.00,11,4,21,0.00
2013-10-31,67.0,63.4,60.0,63.0,60.5,58.0,92,90,83,0.00,40.00,21,9,29,0.00
2013-11-2,56.0,48.0,42.0,42.0,37.8,32.0,90,69,46,0.00,40.00,18,3,24,0.00
2013-11-3,56.0,40.9,32.0,37.0,31.7,26.0,93,73,31,0.00,40.00,6,1,11,0.00
2013-11-4,59.0,51.4,45.0,47.0,38.8,34.0,89,63,46,0.00,40.00,11,3,14,0.00
2013-11-5,50.0,49.5,49.0,47.0,46.7,46.0,91,91,90,0.00,40.00,0,0,1,0.00
2013-11-6,57.0,48.8,42.0,54.0,45.4,36.0,91,89,81,0.00,40.00,18,7,21,0.00
2013-11-9,65.0,50.8,42.0,44.0,35.1,-99.9,86,59,38,0.00,40.00,14,6,18,0.00
2013-11-10,60.0,47.8,35.0,44.0,31.1,23.0,91,58,24,0.00,40.00,10,3,14,0.00
2013-11-11,62.0,49.7,35.0,43.0,31.6,27.0,91,54,29,0.00,40.00,14,5,23,0.00
2013-11-12,40.0,33.0,24.0,37.0,21.5,15.0,91,63,42,0.00,40.00,16,6,24,0.00
2013-11-13,44.0,29.5,17.0,25.0,16.4,11.0,92,64,25,0.00,40.00,6,2,11,0.00
2013-11-14,53.0,42.6,31.0,24.0,20.2,18.0,66,43,25,0.00,40.00,18,8,24,0.00
2013-11-15,51.0,46.5,42.0,45.0,31.5,19.0,90,57,36,0.00,40.00,10,5,16,0.00
2013-11-16,48.0,48.0,48.0,45.0,45.0,45.0,90,90,90,0.00,40.00,4,4,6,0.00
2013-11-17,70.0,63.1,52.0,63.0,44.9,22.0,92,60,23,0.00,40.00,16,7,21,0.00
2013-11-18,57.0,45.0,32.0,36.0,29.6,20.0,90,60,26,0.00,40.00,14,4,23,0.00
2013-11-26,40.0,34.7,27.0,29.0,22.9,10.0,84,63,46,0.00,40.00,18,6,25,0.00
2013-11-27,29.0,22.8,16.0,11.0,6.4,4.0,82,50,35,0.00,40.00,16,7,21,0.00
2013-11-28,43.0,29.4,15.0,25.0,16.4,11.0,84,61,34,0.00,40.00,21,6,23,0.00
2013-11-29,51.0,34.4,21.0,27.0,21.8,19.0,91,65,30,0.00,40.00,6,1,10,0.00
2013-11-30,54.0,41.5,27.0,28.0,22.3,-99.9,87,52,30,0.00,40.00,16,6,23,0.00
2013-12-1,61.0,45.9,34.0,40.0,34.4,26.0,92,66,44,0.00,40.00,9,3,14,0.00
2013-12-2,58.0,43.1,32.0,44.0,37.6,30.0,93,82,57,0.00,40.00,6,2,10,0.00
2013-12-4,68.0,61.5,53.0,59.0,55.4,50.0,91,81,62,0.00,40.00,18,7,25,0.00
2013-12-5,58.0,35.0,25.0,48.0,29.9,22.0,93,82,68,0.00,40.00,14,5,19,0.00
2013-12-6,25.0,21.6,19.0,23.0,18.7,13.0,92,89,79,0.00,40.00,6,3,9,0.00
2013-12-7,23.0,16.2,9.0,13.0,6.8,-99.9,82,70,57,0.00,40.00,6,3,10,0.00
2013-12-8,30.0,25.4,19.0,28.0,21.5,12.0,93,85,73,0.00,40.00,9,4,11,0.00
2013-12-9,32.0,27.3,22.0,25.0,18.1,12.0,90,69,49,0.00,40.00,10,3,12,0.00
2013-12-10,36.0,25.0,13.0,21.0,16.8,10.0,91,73,40,0.00,40.00,16,4,18,0.00
2013-12-11,36.0,24.8,16.0,26.0,17.2,7.0,92,75,47,0.00,40.00,12,5,18,0.00
2013-12-12,32.0,19.5,3.0,11.0,3.7,-3.0,82,52,31,0.00,40.00,10,4,18,0.00
2013-12-13,38.0,30.2,21.0,31.0,20.0,12.0,86,66,47,0.00,40.00,11,5,14,0.00
2013-12-14,36.0,33.8,30.0,34.0,28.8,-99.9,93,86,81,0.00,40.00,21,6,29,0.00
2013-12-15,32.0,29.9,27.0,29.0,23.7,21.0,89,78,67,0.00,40.00,17,8,25,0.00
2013-12-16,47.0,37.9,32.0,38.0,30.3,28.0,91,76,49,0.00,40.00,14,6,21,0.00
2013-12-22,42.0,37.6,33.0,41.0,33.7,27.0,93,86,70,0.00,40.00,12,6,18,0.00
2013-12-23,33.0,28.6,24.0,27.0,18.7,14.0,80,67,56,0.00,40.00,14,6,18,0.00
2013-12-24,28.0,19.9,11.0,13.0,5.0,0.0,70,54,31,0.00,40.00,10,4,14,0.00
2013-12-25,38.0,29.1,18.0,28.0,17.9,11.0,85,63,45,0.00,40.00,14,6,16,0.00
2013-12-26,46.0,33.8,23.0,30.0,23.9,20.0,91,70,35,0.00,40.00,10,4,14,0.00
2013-12-27,51.0,38.3,30.0,34.0,29.0,26.0,89,72,42,0.00,40.00,10,5,14,0.00
2013-12-28,37.0,35.1,34.0,33.0,32.2,31.0,91,89,87,0.00,40.00,8,5,10,0.00